Location: Anciles
(42.5833°N, 0.5167°E)
Time: 06:30:33
(UTC+00:00)

Nadezhda 4 Rocket - Pass Details

Date: 10 December 2019
Orbit: 949 x 993 km, 82.9° (Epoch: 27 January)

Event Time Altitude Azimuth Distance (km) Brightness Sun altitude
Rises 17:29:38 0° 188° (S) 3,693 7.4 -11.6°
Reaches altitude 10° 17:32:09 10° 189° (S) 2,749 6.8 -12.0°
Maximum altitude 17:38:28 83° 277° (W) 1,006 4.1 -13.1°
Drops below altitude 10° 17:44:50 10° 6° (N) 2,756 6.1 -14.3°
Sets 17:47:21 0° 8° (N) 3,704 6.8 -14.7°
